Regional Weather Roundup
Issued by NWS Cleveland, OH

Home | Current Version | Previous Version | Text Only | Print | Product List | Glossary Off
Versions: 1 2 3 4 5 6 7 8 9 10 11 12 13 14 15 16 17 18 19 20 21 22 23 24 25 26 27 28 29 30 31 32 33 34 35 36 37 38 39 40 41 42 43 44 45 46 47 48 49 50

000
ASUS41 KCLE 300700
RWRCLE
OHIO REGIONAL WEATHER ROUNDUP
NATIONAL WEATHER SERVICE WILMINGTON, OH
200 AM EST FRI JAN 30 2015

NOTE: "FAIR" INDICATES FEW OR NO CLOUDS BELOW 12,000 FEET WITH NO
SIGNIFICANT WEATHER AND/OR OBSTRUCTIONS TO VISIBILITY.

OHZ001>008-015>018-024>027-034-035-043-044-300800-
   NORTHWEST OHIO

CITY           SKY/WX    TMP DP  RH WIND       PRES   REMARKS
DEFIANCE       CLOUDY    30  22  72 NW23      30.17R WCI  17
FINDLAY        LGT SNOW  30  25  81 N21G26    30.12R WCI  17
TOLEDO EXPRESS CLOUDY    27  16  63 NW21G29   30.14R WCI  13
TOLEDO EXEC    CLOUDY    29  17  61 NW28G37   30.14R WCI  14
LIMA           LGT SNOW  32  26  78 NW18      30.12R WCI  20
$$

OHZ009>014-019>023-028>033-038-089-300800-
   NORTHEAST OHIO

CITY           SKY/WX    TMP DP  RH WIND       PRES   REMARKS
CLE-HOPKINS    FLURRIES  29  21  72 NW20G28   30.08R WCI  16
CLE-LAKEFRONT  CLOUDY    30  23  75 NW23G32   30.05R WCI  17
CUY CO. ARPT   NOT AVBL
LORAIN-ELYRIA  FLURRIES  29  22  75 N18       30.08R WCI  16
ASHTABULA      LGT SNOW  29  25  85 NW18G29   29.99R FOG     WCI  16
AKRON-CANTON   LGT SNOW  31  27  85 NW15      30.01R FOG     WCI  20
WOOSTER        NOT AVBL
MANSFIELD      CLOUDY    29  22  75 NW17G24   30.06R WCI  17
YOUNGSTOWN     LGT SNOW  30  27  88 NW12      29.97R VSB 1   WCI  20
$$

OHZ042-051>053-060>062-070>072-077>081-300800-
  SOUTHWEST OHIO

CITY           SKY/WX    TMP DP  RH WIND       PRES   REMARKS
CINC-COVINGTON NOT AVBL
CINC-LUNKEN    CLOUDY    35  26  69 CALM      30.23S
HAMILTON       CLOUDY    34  28  79 W12       30.22R WCI  25
DAYTON         NOT AVBL
WRIGHT-PAT AFB FLURRIES  33  29  86 W9        30.16R WCI  25
DAYTON GENERAL CLOUDY    33  28  81 NW9       30.16S WCI  25
WILMINGTON     MIX PCPN  31  28  89 W12       30.15S FOG     WCI  22
$$

OHZ036-037-039>041-045>050-054>059-063>069-073>076-082>088-300800-
  CENTRAL AND SOUTHEAST OHIO

CITY           SKY/WX    TMP DP  RH WIND       PRES   REMARKS
COLUMBUS       CLOUDY    31  26  82 NW14      30.11R WCI  21
OSU AIRPORT    CLOUDY    31  25  78 W10       30.11S WCI  22
BOLTON FIELD   NOT AVBL
RICKENBACK AFB NOT AVBL
NEWARK         CLOUDY    32  28  85 W13       30.09R WCI  22
MARION         FLURRIES  31  27  85 NW10      30.10R WCI  22
LANCASTER      CLOUDY    33  28  81 W8        30.11S WCI  26
ZANESVILLE     LGT SNOW  31  28  89 W9        30.07R FOG     WCI  23
NEW PHILLY     LGT SNOW  32  28  85 W9        30.05R FOG     WCI  24
$$



USA.gov is the U.S. government's official web portal to all federal, state and local government web resources and services.